• In Netherlands
  • List of Countries
  • For 7 days
  • Water Temperature
  • Satellite Maps
  • Weather Map
  • Weather Widgets
  • user-avatar
    Login

    Hourly Weather Eisenstadt

    Today, 19 August, Saturday

    Time Temperature Precipitation Wind Pressure Humidity
    00:00 +21°C° 0 mm 2 mps 722 mmHg 61%
    01:00 +21°C° 0 mm 2 mps 722 mmHg 62%
    02:00 +20°C° 0 mm 2 mps 722 mmHg 64%
    03:00 +20°C° 0 mm 2 mps 722 mmHg 67%
    04:00 +19°C° 0 mm 2 mps 722 mmHg 69%
    05:00 +20°C° 0 mm 3 mps 722 mmHg 69%
    06:00 +21°C° 0 mm 4 mps 723 mmHg 70%
    07:00 +22°C° 0 mm 4 mps 723 mmHg 70%
    08:00 +22°C° 0.2 mm 5 mps 723 mmHg 67%
    09:00 +23°C° 0.2 mm 5 mps 724 mmHg 64%
    10:00 +23°C° 0.2 mm 6 mps 724 mmHg 62%
    11:00 +22°C° 0.3 mm 5 mps 724 mmHg 64%
    12:00 +21°C° 0.3 mm 5 mps 724 mmHg 67%
    13:00 +20°C° 0.3 mm 4 mps 724 mmHg 70%
    14:00 +19°C° 0 mm 5 mps 724 mmHg 69%
    15:00 +19°C° 0 mm 5 mps 724 mmHg 69%
    16:00 +19°C° 0 mm 5 mps 724 mmHg 69%
    17:00 +18°C° 0.7 mm 4 mps 724 mmHg 74%
    18:00 +17°C° 0.7 mm 4 mps 724 mmHg 79%
    19:00 +16°C° 0.7 mm 3 mps 724 mmHg 84%
    20:00 +16°C° 0.5 mm 3 mps 725 mmHg 84%
    21:00 +14°C° 0.5 mm 3 mps 725 mmHg 85%
    22:00 +14°C° 0.5 mm 3 mps 725 mmHg 85%
    23:00 +14°C° 0.1 mm 3 mps 725 mmHg 84%

    Tomorrow, 20 August, Sunday

    Time Temperature Precipitation Wind Pressure Humidity
    00:00 +14°C° 0.1 mm 3 mps 725 mmHg 84%
    01:00 +13°C° 0.1 mm 3 mps 725 mmHg 83%
    02:00 +13°C° 0.5 mm 3 mps 725 mmHg 84%
    03:00 +13°C° 0.5 mm 3 mps 725 mmHg 85%
    04:00 +13°C° 0.5 mm 3 mps 725 mmHg 87%
    05:00 +13°C° 0.1 mm 3 mps 725 mmHg 84%
    06:00 +14°C° 0.1 mm 3 mps 725 mmHg 82%
    07:00 +14°C° 0.1 mm 4 mps 725 mmHg 80%
    08:00 +17°C° 0 mm 4 mps 725 mmHg 69%
    09:00 +19°C° 0 mm 5 mps 726 mmHg 57%
    10:00 +21°C° 0 mm 6 mps 726 mmHg 46%
    11:00 +22°C° 0 mm 5 mps 726 mmHg 43%
    12:00 +23°C° 0 mm 5 mps 726 mmHg 40%
    13:00 +23°C° 0 mm 5 mps 726 mmHg 37%
    14:00 +23°C° 0 mm 5 mps 725 mmHg 37%
    15:00 +23°C° 0 mm 5 mps 725 mmHg 37%
    16:00 +23°C° 0 mm 5 mps 725 mmHg 37%
    17:00 +22°C° 0 mm 4 mps 725 mmHg 44%
    18:00 +20°C° 0 mm 4 mps 725 mmHg 50%
    19:00 +18°C° 0 mm 3 mps 725 mmHg 57%
    20:00 +17°C° 0 mm 3 mps 726 mmHg 60%
    21:00 +16°C° 0 mm 3 mps 726 mmHg 63%
    22:00 +14°C° 0 mm 4 mps 727 mmHg 66%
    23:00 +14°C° 0 mm 3 mps 727 mmHg 68%

    Day after tomorrow, 21 August, Monday

    Time Temperature Precipitation Wind Pressure Humidity
    00:00 +13°C° 0 mm 3 mps 726 mmHg 70%
    01:00 +13°C° 0 mm 3 mps 726 mmHg 71%
    02:00 +13°C° 0 mm 3 mps 726 mmHg 72%
    03:00 +12°C° 0 mm 3 mps 726 mmHg 73%
    04:00 +12°C° 0 mm 3 mps 726 mmHg 74%
    05:00 +13°C° 0 mm 3 mps 726 mmHg 69%
    06:00 +14°C° 0 mm 4 mps 727 mmHg 64%
    07:00 +15°C° 0 mm 4 mps 727 mmHg 59%
    08:00 +16°C° 0 mm 5 mps 727 mmHg 53%
    09:00 +19°C° 0 mm 5 mps 727 mmHg 47%
    10:00 +20°C° 0 mm 5 mps 727 mmHg 41%
    11:00 +21°C° 0 mm 5 mps 727 mmHg 40%
    12:00 +22°C° 0 mm 5 mps 726 mmHg 38%
    13:00 +23°C° 0 mm 5 mps 726 mmHg 36%
    14:00 +22°C° 0 mm 5 mps 726 mmHg 37%
    15:00 +22°C° 0 mm 5 mps 726 mmHg 38%
    16:00 +22°C° 0 mm 5 mps 726 mmHg 38%
    17:00 +20°C° 0 mm 4 mps 726 mmHg 44%
    18:00 +19°C° 0 mm 4 mps 726 mmHg 50%
    19:00 +17°C° 0 mm 3 mps 726 mmHg 56%
    20:00 +16°C° 0 mm 3 mps 726 mmHg 60%
    21:00 +15°C° 0 mm 2 mps 726 mmHg 64%
    22:00 +14°C° 0 mm 2 mps 726 mmHg 69%
    23:00 +14°C° 0 mm 2 mps 726 mmHg 71%

    22 August, Tuesday

    Time Temperature Precipitation Wind Pressure Humidity
    00:00 +13°C° 0 mm 2 mps 726 mmHg 73%
    01:00 +13°C° 0 mm 2 mps 726 mmHg 75%
    02:00 +13°C° 0 mm 2 mps 726 mmHg 76%
    03:00 +12°C° 0 mm 2 mps 726 mmHg 77%
    04:00 +12°C° 0 mm 2 mps 726 mmHg 78%
    05:00 +12°C° 0 mm 3 mps 726 mmHg 73%
    06:00 +13°C° 0 mm 3 mps 726 mmHg 69%
    07:00 +16°C° 0 mm 3 mps 727 mmHg 65%
    08:00 +17°C° 0 mm 4 mps 727 mmHg 58%
    09:00 +19°C° 0 mm 4 mps 727 mmHg 52%
    10:00 +21°C° 0 mm 4 mps 727 mmHg 46%
    11:00 +22°C° 0 mm 4 mps 726 mmHg 43%
    12:00 +23°C° 0 mm 4 mps 726 mmHg 41%
    13:00 +25°C° 0 mm 4 mps 726 mmHg 39%
    14:00 +23°C° 0 mm 4 mps 725 mmHg 39%
    15:00 +23°C° 0 mm 4 mps 725 mmHg 40%
    16:00 +23°C° 0 mm 4 mps 725 mmHg 40%
    17:00 +21°C° 0 mm 3 mps 725 mmHg 47%
    18:00 +19°C° 0 mm 3 mps 725 mmHg 54%
    19:00 +17°C° 0 mm 2 mps 725 mmHg 61%
    20:00 +16°C° 0 mm 2 mps 725 mmHg 64%
    21:00 +15°C° 0 mm 2 mps 725 mmHg 68%
    22:00 +14°C° 0 mm 1 mps 725 mmHg 71%
    23:00 +14°C° 0 mm 1 mps 725 mmHg 73%

    23 August, Wednesday

    Time Temperature Precipitation Wind Pressure Humidity
    00:00 +14°C° 0 mm 1 mps 725 mmHg 74%
    01:00 +13°C° 0 mm 1 mps 725 mmHg 76%
    02:00 +13°C° 0 mm 1 mps 725 mmHg 77%
    03:00 +12°C° 0 mm 1 mps 725 mmHg 79%
    04:00 +12°C° 0 mm 1 mps 725 mmHg 80%
    05:00 +13°C° 0 mm 1 mps 725 mmHg 76%
    06:00 +15°C° 0 mm 1 mps 725 mmHg 71%
    07:00 +15°C° 0 mm 0 mps 725 mmHg 66%
    08:00 +19°C° 0 mm 1 mps 725 mmHg 59%
    09:00 +22°C° 0 mm 1 mps 726 mmHg 52%
    10:00 +24°C° 0 mm 1 mps 726 mmHg 45%
    11:00 +25°C° 0 mm 1 mps 725 mmHg 41%
    12:00 +26°C° 0 mm 1 mps 725 mmHg 36%
    13:00 +28°C° 0 mm 1 mps 725 mmHg 32%
    14:00 +28°C° 0 mm 1 mps 725 mmHg 32%
    15:00 +27°C° 0 mm 1 mps 724 mmHg 31%
    16:00 +27°C° 0 mm 1 mps 724 mmHg 31%
    17:00 +25°C° 0 mm 1 mps 724 mmHg 37%
    18:00 +23°C° 0 mm 1 mps 724 mmHg 43%
    19:00 +20°C° 0 mm 1 mps 724 mmHg 49%
    20:00 +19°C° 0 mm 1 mps 724 mmHg 50%
    21:00 +19°C° 0 mm 1 mps 724 mmHg 52%
    22:00 +18°C° 0 mm 1 mps 724 mmHg 54%
    23:00 +16°C° 0 mm 1 mps 724 mmHg 55%

    24 August, Thursday

    Time Temperature Precipitation Wind Pressure Humidity
    00:00 +16°C° 0 mm 1 mps 724 mmHg 56%
    01:00 +16°C° 0 mm 1 mps 724 mmHg 57%
    02:00 +16°C° 0 mm 1 mps 724 mmHg 58%
    03:00 +15°C° 0 mm 1 mps 724 mmHg 59%
    04:00 +15°C° 0 mm 1 mps 724 mmHg 60%
    05:00 +16°C° 0 mm 1 mps 724 mmHg 58%
    06:00 +19°C° 0 mm 1 mps 725 mmHg 55%
    07:00 +20°C° 0 mm 1 mps 725 mmHg 53%
    08:00 +23°C° 0 mm 1 mps 725 mmHg 48%
    09:00 +25°C° 0 mm 1 mps 725 mmHg 42%
    10:00 +28°C° 0 mm 1 mps 726 mmHg 37%
    11:00 +29°C° 0 mm 1 mps 726 mmHg 35%
    12:00 +30°C° 0 mm 1 mps 725 mmHg 32%
    13:00 +31°C° 0 mm 1 mps 725 mmHg 30%
    14:00 +31°C° 0 mm 1 mps 725 mmHg 30%
    15:00 +31°C° 0 mm 1 mps 724 mmHg 30%
    16:00 +31°C° 0 mm 1 mps 724 mmHg 30%
    17:00 +29°C° 0 mm 1 mps 724 mmHg 36%
    18:00 +27°C° 0 mm 1 mps 724 mmHg 42%
    19:00 +25°C° 0 mm 1 mps 724 mmHg 47%
    20:00 +24°C° 0 mm 1 mps 724 mmHg 50%
    21:00 +23°C° 0 mm 1 mps 724 mmHg 53%
    22:00 +22°C° 0 mm 1 mps 724 mmHg 56%
    23:00 +22°C° 0.1 mm 1 mps 724 mmHg 59%
    Show more